Weather History for Athens Eleftherios, Greece

Change the Weather History Date:

Friday, November 2, 2012

  Actual Average (LGEL) Record (LGEL)
Temperature  
Mean Temperature 72 °F -  
Max Temperature 77 °F 66 °F 82 °F (2008)
Min Temperature 64 °F 52 °F 46 °F (2011)
Cooling Degree Days 6    
Growing Degree Days 22 (Base 50)    
Moisture  
Dew Point 60 °F    
Average Humidity 67    
Maximum Humidity 88    
Minimum Humidity 46    
Precipitation  
Precipitation 0.00 in - - ()
Sea Level Pressure  
Sea Level Pressure 29.82 in    
Wind  
Wind Speed 4 mph ()    
Max Wind Speed 9 mph    
Max Gust Speed -    
Visibility 6.2 miles    
Events      
Averages and records for this station are not official NWS values.
T = Trace of Precipitation, MM = Missing Value Source: Averaged Metar Reports

Daily Weather History Graph

Daily Weather History Graph

Search for Another Location

Airport:

Trip Planner

Search our weather history database for the weather conditions in past years. The results will help you decide how hot, cold, wet, or windy it might be!

Date:

Astronomy

Nov. 02, 2012 Rise Set
Actual Time 6:51 AM EET 5:23 PM EET
Civil Twilight 6:23 AM EET 5:51 PM EET
Nautical Twilight 5:52 AM EET 6:22 PM EET
Astronomical Twilight 5:21 AM EET 6:53 PM EET
Moon 7:57 PM EET (11/2) 9:54 AM EET (11/2)
Length of Visible Light 11h 27m
Length of Day
10h 32m
Waning Gibbous, 89% of the Moon is Illuminated
Nov 2
Waning Gibbous
Nov 7
Last Quarter
Nov 14
New
Nov 20
First Quarter
Nov 28
Full

Hourly Weather History & Observations

Time (EET) Temp. Dew Point Humidity Pressure Visibility Wind Dir Wind Speed Gust Speed Precip Events Conditions
12:20 AM 71.6 °F 64.4 °F 78% 29.77 in 6.2 mi SW 9.2 mph - N/A   Partly Cloudy
12:50 AM 71.6 °F 64.4 °F 78% 29.77 in 6.2 mi WSW 4.6 mph - N/A   Partly Cloudy
1:20 AM 71.6 °F 64.4 °F 78% 29.77 in 6.2 mi Variable 1.2 mph - N/A   Partly Cloudy
1:50 AM 71.6 °F 64.4 °F 78% 29.77 in 6.2 mi SW 4.6 mph - N/A   Partly Cloudy
2:20 AM 71.6 °F 66.2 °F 83% 29.74 in 6.2 mi SW 8.1 mph - N/A   Partly Cloudy
2:50 AM 71.6 °F 66.2 °F 83% 29.74 in 6.2 mi SSW 5.8 mph - N/A   Partly Cloudy
3:20 AM 71.6 °F 64.4 °F 78% 29.74 in 6.2 mi SSW 9.2 mph - N/A   Partly Cloudy
3:50 AM 71.6 °F 66.2 °F 83% 29.74 in 6.2 mi SW 4.6 mph - N/A   Partly Cloudy
4:20 AM 71.6 °F 64.4 °F 78% 29.77 in 6.2 mi South 6.9 mph - N/A   Scattered Clouds
4:50 AM 69.8 °F 64.4 °F 83% 29.77 in 6.2 mi Variable 3.5 mph - N/A   Scattered Clouds
5:20 AM 69.8 °F 64.4 °F 83% 29.77 in 6.2 mi WSW 3.5 mph - N/A   Scattered Clouds
5:50 AM 69.8 °F 64.4 °F 83% 29.77 in 6.2 mi Variable 1.2 mph - N/A   Partly Cloudy
6:20 AM 69.8 °F 64.4 °F 83% 29.77 in 6.2 mi Calm Calm - N/A   Partly Cloudy
6:50 AM 66.2 °F 62.6 °F 88% 29.77 in 6.2 mi Variable 1.2 mph - N/A   Partly Cloudy
7:20 AM 66.2 °F 60.8 °F 83% 29.77 in 6.2 mi Variable 1.2 mph - N/A   Partly Cloudy
7:50 AM 68.0 °F 64.4 °F 88% 29.80 in 6.2 mi Variable 1.2 mph - N/A   Partly Cloudy
8:20 AM 69.8 °F 64.4 °F 83% 29.80 in - Variable 2.3 mph - N/A   Clear
8:50 AM 71.6 °F 66.2 °F 83% 29.80 in - Variable 1.2 mph - N/A   Clear
9:20 AM 73.4 °F 64.4 °F 73% 29.80 in - Variable 3.5 mph - N/A   Clear
9:50 AM 73.4 °F 62.6 °F 69% 29.83 in - NNE 4.6 mph - N/A   Clear
10:20 AM 75.2 °F 64.4 °F 69% 29.83 in - East 4.6 mph - N/A   Clear
10:50 AM 75.2 °F 64.4 °F 69% 29.83 in 6.2 mi East 5.8 mph - N/A   Partly Cloudy
11:20 AM 75.2 °F 60.8 °F 61% 29.83 in 6.2 mi NE 5.8 mph - N/A   Partly Cloudy
11:50 AM 77.0 °F 62.6 °F 61% 29.83 in 6.2 mi Variable 3.5 mph - N/A   Partly Cloudy
12:20 PM 77.0 °F 62.6 °F 61% 29.80 in 6.2 mi SW 6.9 mph - N/A   Partly Cloudy
12:50 PM 77.0 °F 62.6 °F 61% 29.80 in 6.2 mi WSW 8.1 mph - N/A   Partly Cloudy
1:20 PM 77.0 °F 60.8 °F 57% 29.80 in 6.2 mi West 5.8 mph - N/A   Partly Cloudy
1:50 PM 77.0 °F 60.8 °F 57% 29.80 in 6.2 mi East 8.1 mph - N/A   Partly Cloudy
2:20 PM 77.0 °F 60.8 °F 57% 29.80 in - East 6.9 mph - N/A   Clear
2:50 PM 77.0 °F 59.0 °F 54% 29.80 in - East 8.1 mph - N/A   Clear
3:20 PM 77.0 °F 59.0 °F 54% 29.80 in - East 8.1 mph - N/A   Clear
3:50 PM 75.2 °F 59.0 °F 57% 29.80 in - ENE 8.1 mph - N/A   Clear
4:20 PM 75.2 °F 59.0 °F 57% 29.80 in - East 5.8 mph - N/A   Clear
4:50 PM 73.4 °F 57.2 °F 57% 29.83 in - East 4.6 mph - N/A   Clear
5:20 PM 71.6 °F 59.0 °F 64% 29.83 in - ENE 4.6 mph - N/A   Clear
5:50 PM 69.8 °F 59.0 °F 68% 29.83 in - Variable 2.3 mph - N/A   Clear
6:20 PM 73.4 °F 51.8 °F 47% 29.86 in - NW 3.5 mph - N/A   Clear
6:50 PM 71.6 °F 50.0 °F 46% 29.86 in - Calm Calm - N/A   Clear
7:20 PM 68.0 °F 53.6 °F 60% 29.86 in - Variable 1.2 mph - N/A   Clear
7:50 PM 71.6 °F 50.0 °F 46% 29.86 in - WSW 5.8 mph - N/A   Clear
8:20 PM 71.6 °F 50.0 °F 46% 29.89 in - Variable 1.2 mph - N/A   Clear
8:50 PM 69.8 °F 51.8 °F 53% 29.89 in - Variable 2.3 mph - N/A   Clear
9:20 PM 68.0 °F 51.8 °F 56% 29.89 in 6.2 mi Variable 2.3 mph - N/A   Partly Cloudy
9:50 PM 68.0 °F 51.8 °F 56% 29.92 in 6.2 mi NE 4.6 mph - N/A   Partly Cloudy
10:20 PM 68.0 °F 50.0 °F 52% 29.92 in 6.2 mi Variable 1.2 mph - N/A   Partly Cloudy
10:50 PM 66.2 °F 51.8 °F 60% 29.92 in 6.2 mi NNW 6.9 mph - N/A   Partly Cloudy
11:20 PM 66.2 °F 50.0 °F 56% 29.92 in 6.2 mi Variable 2.3 mph - N/A   Partly Cloudy
11:50 PM 64.4 °F 51.8 °F 64% 29.92 in 6.2 mi Variable 1.2 mph - N/A   Partly Cloudy